Zurück zum Katalog

TELECOM 1B

AktivKommunikationGEO
NORAD 15678·PAYLOAD·🇫🇷 France

Gestartet May 8, 1985 von Guiana Space Centre

Loading…

TLE

AktuellSource: Space-Track

Epoche: Sep 13, 2026, 23:58 UTC

1 15678U 85035B   26256.99912975 -.00000230  00000-0  00000-0 0  9996
2 15678  10.0015 320.3639 0001938 297.1316  65.9053  1.00307139137915

Verfolge TELECOM 1B in Echtzeit mit AllMySat

Download on the App Store